Weather History for KPWK - April, 2014

Change the Weather History Date:

Tuesday, April 29, 2014

  Actual Average Record
Temperature  
Mean Temperature 52 °F 53 °F  
Max Temperature 59 °F 63 °F 82 °F (2007)
Min Temperature 44 °F 42 °F 31 °F (2008)
Degree Days  
Heating Degree Days 13 13  
Month to date heating degree days 492 509  
Since 1 July heating degree days 6898 6100  
Cooling Degree Days 0 0  
Month to date cooling degree days 0 0  
Year to date cooling degree days 0 0  
Growing Degree Days 2 (Base 50)    
Moisture  
Dew Point 46 °F    
Average Humidity 89    
Maximum Humidity 97    
Minimum Humidity 60    
Precipitation  
Precipitation 0.66 in 0.16 in 0.66 in (2014)
Month to date precipitation 2.88 2.79  
Year to date precipitation 5.56 7.62  
Sea Level Pressure  
Sea Level Pressure 29.54 in    
Wind  
Wind Speed 6 mph (ENE)    
Max Wind Speed 21 mph    
Max Gust Speed 27 mph    
Visibility 5 miles    
Events Fog , Rain , Thunderstorm    
T = Trace of Precipitation, MM = Missing Value Source: NWS Daily Summary

Daily Weather History Graph

Daily Weather History Graph

Search for Another Location

Airport or City:

Trip Planner

Search our weather history database for the weather conditions in past years. The results will help you decide how hot, cold, wet, or windy it might be!

Date:

Astronomy

Apr. 29, 2014 Rise Set
Actual Time 5:50 AM CDT 7:48 PM CDT
Civil Twilight 5:19 AM CDT 8:18 PM CDT
Nautical Twilight 4:42 AM CDT 8:56 PM CDT
Astronomical Twilight 4:02 AM CDT 9:36 PM CDT
Moon 6:08 AM CDT (4/29) 8:28 PM CDT (4/29)
Length of Visible Light 14h 59m
Length of Day
13h 58m
New Moon, 0% of the Moon is Illuminated
Apr 29
New Moon
May 6
First Quarter
May 14
Full
May 21
Last Quarter
May 28
New

Hourly Weather History & Observations

Time (CDT) Temp. Windchill Dew Point Humidity Pressure Visibility Wind Dir Wind Speed Gust Speed Precip Events Conditions
12:07 AM 48.9 °F - 46.0 °F 90% 29.58 in 7.0 mi ESE 6.9 mph - 0.00 in Rain Light Rain
12:52 AM 48.9 °F - 46.0 °F 90% 29.57 in 7.0 mi East 4.6 mph - 0.01 in Rain Light Rain
1:52 AM 48.0 °F - 46.0 °F 93% 29.56 in 5.0 mi East 3.5 mph - 0.01 in Rain Light Rain
2:52 AM 48.0 °F - 46.0 °F 93% 29.54 in 4.0 mi ENE 5.8 mph - 0.09 in Rain Light Rain
3:26 AM 46.9 °F - 45.0 °F 93% 29.50 in 4.0 mi NE 8.1 mph - 0.01 in Rain Light Rain
3:40 AM 46.9 °F - 45.0 °F 93% 29.52 in 5.0 mi East 6.9 mph - 0.01 in   Overcast
3:52 AM 46.9 °F - 45.0 °F 93% 29.51 in 4.0 mi ENE 4.6 mph - 0.01 in   Overcast
4:10 AM 46.9 °F - 45.0 °F 93% 29.50 in 2.5 mi ENE 4.6 mph - N/A   Overcast
4:32 AM 45.0 °F 41.2 °F 44.1 °F 97% 29.50 in 1.8 mi NE 6.9 mph - N/A   Overcast
4:52 AM 44.1 °F 41.5 °F 43.0 °F 96% 29.52 in 1.2 mi NE 4.6 mph - N/A   Overcast
5:00 AM 44.1 °F 42.5 °F 43.0 °F 96% 29.51 in 1.0 mi NNE 3.5 mph - N/A   Overcast
5:08 AM 44.1 °F 42.5 °F 43.0 °F 96% 29.51 in 0.8 mi NNE 3.5 mph - N/A   Mist
6:52 AM 45.0 °F 42.6 °F 44.1 °F 97% 29.51 in 0.2 mi North 4.6 mph - N/A Fog Fog
8:52 AM 46.0 °F 44.8 °F 45.0 °F 96% 29.53 in 0.5 mi NNE 3.5 mph - N/A Fog Fog
9:11 AM 46.9 °F - 45.0 °F 93% 29.52 in 1.2 mi NE 3.5 mph - N/A   Overcast
9:28 AM 48.0 °F - 46.0 °F 93% 29.51 in 2.5 mi North 3.5 mph - N/A   Overcast
9:41 AM 48.0 °F - 46.0 °F 93% 29.51 in 3.0 mi NE 3.5 mph - N/A   Overcast
10:26 AM 50.0 °F - 48.0 °F 93% 29.52 in 5.0 mi Calm Calm - 0.00 in   Overcast
10:52 AM 50.0 °F - 48.0 °F 93% 29.52 in 4.0 mi ENE 5.8 mph - 0.00 in   Overcast
11:52 AM 48.9 °F - 46.0 °F 90% 29.49 in 3.0 mi NNE 12.7 mph - 0.03 in Rain Rain
12:14 PM 48.0 °F - 45.0 °F 89% 29.51 in 5.0 mi NW 12.7 mph - 0.02 in Rain , Thunderstorm Light Thunderstorms and Rain
12:19 PM 48.0 °F - 46.0 °F 93% 29.52 in 1.8 mi North 8.1 mph - 0.12 in Rain , Thunderstorm Heavy Thunderstorms and Rain
12:23 PM 46.9 °F - 46.0 °F 97% 29.52 in 0.8 mi Variable 5.8 mph - 0.35 in Rain , Thunderstorm Heavy Thunderstorms and Rain
12:30 PM 48.0 °F - 46.0 °F 93% 29.51 in 1.2 mi Variable 3.5 mph - 0.41 in Rain , Thunderstorm Thunderstorms and Rain
12:35 PM 48.9 °F - 46.0 °F 90% 29.50 in 3.0 mi ENE 5.8 mph - 0.43 in Rain , Thunderstorm Thunderstorms and Rain
12:52 PM 48.0 °F - 46.0 °F 93% 29.51 in 10.0 mi ENE 13.8 mph 18.4 mph 0.44 in Rain , Thunderstorm Light Rain
1:01 PM 48.0 °F - 46.0 °F 93% 29.50 in 10.0 mi ENE 10.4 mph - 0.00 in   Overcast
1:52 PM 48.9 °F - 45.0 °F 86% 29.54 in 10.0 mi East 4.6 mph - 0.02 in   Overcast
2:52 PM 52.0 °F - 48.0 °F 86% 29.56 in 10.0 mi Variable 3.5 mph - N/A   Overcast
3:23 PM 57.9 °F - 44.1 °F 60% 29.56 in 10.0 mi SSW 11.5 mph 25.3 mph N/A   Overcast
5:52 PM 59.0 °F - 45.0 °F 60% 29.62 in 10.0 mi SSW 9.2 mph - N/A   Overcast
6:52 PM 57.9 °F - 44.1 °F 60% 29.64 in 10.0 mi SSW 8.1 mph - N/A   Overcast
7:52 PM 55.9 °F - 44.1 °F 64% 29.65 in 10.0 mi South 4.6 mph - N/A   Overcast
8:52 PM 52.0 °F - 48.0 °F 86% 29.68 in 7.0 mi South 6.9 mph - 0.02 in Rain Light Rain
10:52 PM 51.1 °F - 48.0 °F 89% 29.67 in 10.0 mi South 3.5 mph - N/A   Mostly Cloudy
11:52 PM 50.0 °F - 48.0 °F 93% 29.67 in 10.0 mi SSE 4.6 mph - N/A   Overcast